Location: Pasadena, ca
(34.1243°N, 118.1037°W)
Time: 10:06:20
(UTC-07:00)

OTV 5 (USA 277) - Pass Details

Date: 11 October 2017
Orbit: 404 x 417 km, 43.0° (Epoch: 07 September)

Event Time Altitude Azimuth Distance (km) Brightness Sun altitude
Rises 18:57:02 0° 251° (WSW) 2,345 ? -7.9°
Reaches altitude 10° 18:59:10 10° 256° (WSW) 1,485 ? -8.3°
Maximum altitude 19:02:28 53° 334° (NNW) 515 ? -9.0°
Drops below altitude 10° 19:05:46 10° 53° (NE) 1,489 ? -9.7°
Enters shadow 19:05:49 10° 53° (NE) 1,504 ? -9.7°
